Regional Weather Roundup
Issued by NWS

Home | Current Version | Previous Version | Text Only | Print | Product List | Glossary On
Versions: 1 2 3 4 5 6 7 8 9 10 11 12 13 14 15 16 17 18 19 20 21 22 23 24 25 26 27 28 29 30 31 32 33 34 35 36 37 38 39 40 41 42 43 44 45 46 47 48 49 50
000
ASUS44 KBMX 160910
RWRAL

ALABAMA REGIONAL WEATHER ROUNDUP
NATIONAL WEATHER SERVICE BIRMINGHAM AL
400 AM CDT TUE SEP 16 2014

NOTE: "FAIR" INDICATES FEW OR NO CLOUDS BELOW 12,000 FEET
WITH NO SIGNIFICANT WEATHER AND/OR OBSTRUCTIONS TO VISIBILITY.

THE REMARK "TC" DENOTES TEMPERATURE IN DEGREES CELSIUS.

ALZ001>011-014-016>018-020-161000-
NORTH ALABAMA

CITY           SKY/WX    TMP DP  RH WIND       PRES   REMARKS
MUSCLE SHOALS  CLOUDY    69  66  90 CALM      30.10F
HUNTSVILLE     CLOUDY    71  68  90 CALM      30.09S FOG
DECATUR        CLOUDY    69  67  93 CALM      30.10S
HALEYVILLE     FAIR      69  69 100 CALM      30.13S
GADSDEN        CLOUDY    72  70  94 CALM      30.09S VSB 1/4
$$

ALZ012-013-022-023-030>036-040>044-161000-
WEST CENTRAL ALABAMA

CITY           SKY/WX    TMP DP  RH WIND       PRES   REMARKS
TUSCALOOSA     CLOUDY    74  72  93 CALM      30.08F
$$

ALZ015-024>027-033>036-040>044-161000-
CENTRAL ALABAMA

CITY           SKY/WX    TMP DP  RH WIND       PRES   REMARKS
BIRMINGHAM     CLOUDY    72  69  90 CALM      30.12S
MONTGOMERY     CLOUDY    74  71  91 N5        30.07S
SHELBY CO ARPT MOCLDY    71  69  93 CALM      30.10F
MAXWELL AFB    CLOUDY    73  73 100 NE3       30.07S
GREENVILLE     FOG       74  72  93 CALM      30.07S VSB 1/2
$$

ALZ019-021-028-029-037-038-045>048-161000-
EAST CENTRAL ALABAMA

CITY           SKY/WX    TMP DP  RH WIND       PRES   REMARKS
ANNISTON       FOG       72  71  97 CALM      30.09F VSB 3/4
ALEXANDER CITY CLOUDY    74  73  96 CALM      30.11S
AUBURN         MOCLDY    70  66  88 CALM      30.12S
$$

ALZ051>064-161000-
SOUTHWEST ALABAMA

CITY           SKY/WX    TMP DP  RH WIND       PRES   REMARKS
MOBILE         PTCLDY    73  73 100 CALM      30.05F
BROOKLEY FIELD PTCLDY    75  75 100 CALM      30.05F
EVERGREEN      PTCLDY    74  72  93 CALM      30.06S
$$

ALZ049-050-065>069-161000-
SOUTHEAST ALABAMA

CITY           SKY/WX    TMP DP  RH WIND       PRES   REMARKS
DOTHAN         MOCLDY    74  73  97 CALM      30.09S
OZARK          FOG       73  73 100 W1        30.05F VSB 1/4
TROY           PTCLDY    74  72  93 N3        30.07S
EUFAULA        CLOUDY    77  74  90 CALM      30.05F
$$


USA.gov is the U.S. government's official web portal to all federal, state and local government web resources and services.